Hugo, OK

3:21 PM CDT on May 23, 2017 (GMT -0500)
Stamper Municipal

Weather History for KHHW - September, 2013

Change the Weather History Date:

Friday, September 6, 2013

  Actual Average Record
Temperature  
Mean Temperature 88 °F -  
Max Temperature 102 °F 90 °F 102 °F (2013)
Min Temperature 73 °F 65 °F 73 °F (2013)
Cooling Degree Days 22    
Growing Degree Days 38 (Base 50)    
Moisture  
Dew Point 64 °F    
Average Humidity 48    
Maximum Humidity 77    
Minimum Humidity 26    
Precipitation  
Precipitation 0.00 in - - ()
Sea Level Pressure  
Sea Level Pressure 30.05 in    
Wind  
Wind Speed 5 mph (ESE)    
Max Wind Speed 8 mph    
Max Gust Speed -    
Visibility 10 miles    
Events      
Averages and records for this station are not official NWS values.
T = Trace of Precipitation, MM = Missing Value Source: NWS Daily Summary

Daily Weather History Graph

Daily Weather History Graph

Search for Another Location

Airport or City:

Trip Planner

Search our weather history database for the weather conditions in past years. The results will help you decide how hot, cold, wet, or windy it might be!

Date:

Astronomy

Sep. 06, 2013 Rise Set
Actual Time 6:59 AM CDT 7:40 PM CDT
Civil Twilight 6:34 AM CDT 8:06 PM CDT
Nautical Twilight 6:04 AM CDT 8:35 PM CDT
Astronomical Twilight 5:33 AM CDT 9:06 PM CDT
Moon 8:06 AM CDT (9/6) 8:12 PM CDT (9/6)
Length of Visible Light 13h 32m
Length of Day
12h 41m
New Moon, 2% of the Moon is Illuminated
Sep 6
New Moon
Sep 12
First Quarter
Sep 19
Full
Sep 26
Last Quarter
Oct 4
New

Hourly Weather History & Observations

Time (CDT) Temp. Heat Index Dew Point Humidity Pressure Visibility Wind Dir Wind Speed Gust Speed Precip Events Conditions
12:15 AM 81.7 °F 83.0 °F 63.7 °F 54% 30.08 in 10.0 mi East 4.6 mph - N/A   Clear
12:35 AM 81.5 °F 82.8 °F 63.1 °F 54% 30.08 in 10.0 mi East 3.5 mph - N/A   Clear
12:55 AM 80.4 °F 81.7 °F 62.8 °F 55% 30.08 in 10.0 mi East 4.6 mph - N/A   Clear
1:15 AM 79.5 °F - 62.6 °F 56% 30.09 in 10.0 mi ESE 5.8 mph - N/A   Clear
1:35 AM 80.1 °F 81.1 °F 60.8 °F 52% 30.09 in 10.0 mi ESE 6.9 mph - N/A   Clear
1:55 AM 79.2 °F - 60.8 °F 53% 30.09 in 10.0 mi ESE 5.8 mph - N/A   Clear
2:15 AM 78.8 °F - 60.8 °F 54% 30.08 in 10.0 mi East 6.9 mph - N/A   Clear
2:35 AM 78.8 °F - 60.8 °F 54% 30.08 in 10.0 mi East 5.8 mph - N/A   Clear
2:55 AM 77.5 °F - 61.0 °F 57% 30.08 in 10.0 mi ESE 5.8 mph - N/A   Clear
3:15 AM 76.6 °F - 61.3 °F 59% 30.08 in 10.0 mi ESE 5.8 mph - N/A   Clear
3:35 AM 76.3 °F - 61.7 °F 60% 30.08 in 10.0 mi East 4.6 mph - N/A   Clear
3:55 AM 75.9 °F - 62.2 °F 62% 30.08 in 10.0 mi ESE 5.8 mph - N/A   Clear
4:15 AM 75.6 °F - 62.6 °F 64% 30.07 in 10.0 mi ESE 6.9 mph - N/A   Clear
4:35 AM 75.0 °F - 63.0 °F 66% 30.07 in 10.0 mi ESE 4.6 mph - N/A   Clear
4:55 AM 74.7 °F - 63.1 °F 67% 30.07 in 10.0 mi ESE 4.6 mph - N/A   Clear
5:15 AM 73.8 °F - 63.5 °F 70% 30.08 in 10.0 mi ESE 4.6 mph - N/A   Clear
5:35 AM 73.4 °F - 63.7 °F 71% 30.08 in 10.0 mi East 4.6 mph - N/A   Clear
5:55 AM 73.8 °F - 64.4 °F 72% 30.08 in 10.0 mi East 3.5 mph - N/A   Clear
6:15 AM 74.3 °F - 64.8 °F 72% 30.09 in 10.0 mi Calm Calm - N/A   Clear
6:35 AM 73.2 °F - 65.3 °F 76% 30.09 in 10.0 mi East 3.5 mph - N/A   Clear
6:55 AM 73.8 °F - 65.7 °F 76% 30.10 in 10.0 mi East 3.5 mph - N/A   Clear
7:15 AM 73.9 °F - 65.8 °F 76% 30.10 in 10.0 mi East 3.5 mph - N/A   Clear
7:35 AM 73.8 °F - 66.2 °F 77% 30.10 in 10.0 mi East 3.5 mph - N/A   Clear
7:55 AM 75.7 °F - 66.4 °F 73% 30.10 in 10.0 mi East 4.6 mph - N/A   Clear
8:15 AM 77.7 °F - 66.0 °F 67% 30.11 in 10.0 mi ESE 8.1 mph - N/A   Clear
8:35 AM 79.3 °F - 66.4 °F 64% 30.11 in 10.0 mi ESE 5.8 mph - N/A   Clear
8:55 AM 80.6 °F 82.7 °F 66.2 °F 61% 30.11 in 10.0 mi East 6.9 mph - N/A   Clear
9:15 AM 82.6 °F 84.9 °F 66.6 °F 58% 30.11 in 10.0 mi ESE 6.9 mph - N/A   Clear
9:35 AM 84.2 °F 86.8 °F 66.7 °F 56% 30.11 in 10.0 mi SE 8.1 mph - N/A   Clear
9:55 AM 85.5 °F 88.2 °F 67.1 °F 54% 30.11 in 10.0 mi ESE 6.9 mph - N/A   Clear
10:15 AM 86.4 °F 89.0 °F 66.9 °F 52% 30.12 in 10.0 mi SE 6.9 mph - N/A   Clear
10:35 AM 87.6 °F 90.4 °F 67.1 °F 50% 30.12 in 10.0 mi ESE 6.9 mph - N/A   Clear
10:55 AM 89.6 °F 92.2 °F 66.6 °F 46% 30.11 in 10.0 mi East 3.5 mph - N/A   Clear
11:15 AM 91.4 °F 94.5 °F 66.6 °F 44% 30.11 in 10.0 mi SSE 5.8 mph - N/A   Clear
11:35 AM 91.9 °F 94.5 °F 66.0 °F 42% 30.11 in 10.0 mi SE 5.8 mph - N/A   Clear
11:55 AM 93.0 °F 96.4 °F 66.6 °F 42% 30.10 in 10.0 mi ESE 4.6 mph - N/A   Clear
12:15 PM 94.5 °F 97.5 °F 66.2 °F 39% 30.10 in 10.0 mi SE 4.6 mph - N/A   Clear
12:35 PM 96.4 °F 100.6 °F 67.3 °F 38% 30.09 in 10.0 mi East 4.6 mph - N/A   Clear
12:55 PM 96.3 °F 100.2 °F 66.7 °F 38% 30.08 in 10.0 mi ESE 3.5 mph - N/A   Clear
1:15 PM 97.3 °F 100.5 °F 65.7 °F 35% 30.07 in 10.0 mi SE 4.6 mph - N/A   Mostly Cloudy
1:35 PM 97.5 °F 100.8 °F 65.3 °F 35% 30.06 in 10.0 mi Calm Calm - N/A   Mostly Cloudy
1:55 PM 100.2 °F 103.3 °F 64.9 °F 31% 30.05 in 10.0 mi SE 4.6 mph - N/A   Scattered Clouds
2:15 PM 99.0 °F 101.1 °F 63.5 °F 31% 30.04 in 10.0 mi ESE 6.9 mph - N/A   Clear
2:35 PM 100.9 °F 103.3 °F 63.0 °F 29% 30.04 in 10.0 mi Calm Calm - N/A   Clear
2:55 PM 100.8 °F 102.4 °F 62.1 °F 28% 30.03 in 10.0 mi WSW 4.6 mph - N/A   Scattered Clouds
3:15 PM 102.2 °F 104.2 °F 62.8 °F 27% 30.01 in 10.0 mi ENE 4.6 mph - N/A   Scattered Clouds
3:35 PM 101.5 °F 103.0 °F 61.7 °F 27% 30.01 in 10.0 mi Calm Calm - N/A   Scattered Clouds
3:55 PM 101.7 °F 103.3 °F 61.3 °F 27% 30.00 in 10.0 mi Calm Calm - N/A   Scattered Clouds
4:15 PM 101.1 °F 101.9 °F 60.8 °F 26% 29.99 in 10.0 mi Calm Calm - N/A   Clear
4:35 PM 101.1 °F 101.9 °F 60.4 °F 26% 29.98 in 10.0 mi NE 4.6 mph - N/A   Clear
4:55 PM 101.7 °F 102.7 °F 60.8 °F 26% 29.98 in 10.0 mi East 6.9 mph - N/A   Clear
5:15 PM 101.5 °F 102.4 °F 61.0 °F 26% 29.97 in 10.0 mi East 4.6 mph - N/A   Clear
5:35 PM 100.8 °F 101.9 °F 61.5 °F 27% 29.97 in 10.0 mi SSE 3.5 mph - N/A   Clear
5:55 PM 100.8 °F 101.9 °F 61.2 °F 27% 29.97 in 10.0 mi Calm Calm - N/A   Clear
6:15 PM 100.2 °F 101.5 °F 61.5 °F 28% 29.96 in 10.0 mi East 4.6 mph - N/A   Clear
6:35 PM 99.0 °F 100.5 °F 62.4 °F 30% 29.96 in 10.0 mi ESE 4.6 mph - N/A   Clear
6:55 PM 98.1 °F 100.1 °F 63.3 °F 32% 29.97 in 10.0 mi East 3.5 mph - N/A   Clear
7:15 PM 95.5 °F 96.9 °F 63.3 °F 34% 29.97 in 10.0 mi SE 4.6 mph - N/A   Clear
7:35 PM 94.3 °F 95.8 °F 63.1 °F 36% 29.97 in 10.0 mi SE 5.8 mph - N/A   Clear
7:55 PM 92.5 °F 93.7 °F 63.5 °F 38% 29.97 in 10.0 mi ESE 4.6 mph - N/A   Clear
8:15 PM 91.4 °F 92.4 °F 63.5 °F 39% 29.97 in 10.0 mi SE 4.6 mph - N/A   Clear
8:35 PM 91.2 °F 92.2 °F 63.0 °F 39% 29.97 in 10.0 mi SE 5.8 mph - N/A   Clear
8:55 PM 91.0 °F 91.5 °F 62.2 °F 38% 29.98 in 10.0 mi SSE 4.6 mph - N/A   Clear
9:15 PM 90.5 °F 91.1 °F 62.2 °F 39% 29.98 in 10.0 mi SSE 4.6 mph - N/A   Clear
9:35 PM 89.8 °F 90.4 °F 62.8 °F 40% 29.98 in 10.0 mi SE 4.6 mph - N/A   Clear
9:55 PM 88.0 °F 88.7 °F 63.1 °F 43% 29.99 in 10.0 mi ESE 5.8 mph - N/A   Clear
10:15 PM 86.7 °F 87.8 °F 63.5 °F 46% 29.99 in 10.0 mi ESE 3.5 mph - N/A   Clear
10:35 PM 85.8 °F 86.8 °F 63.7 °F 47% 29.99 in 10.0 mi East 3.5 mph - N/A   Clear
10:55 PM 83.3 °F 84.8 °F 64.4 °F 53% 30.00 in 10.0 mi ENE 3.5 mph - N/A   Clear
11:15 PM 83.5 °F 85.7 °F 66.2 °F 56% 29.99 in 10.0 mi East 4.6 mph - N/A   Clear
11:35 PM 83.3 °F 85.9 °F 66.9 °F 58% 29.99 in 10.0 mi Calm Calm - N/A   Clear
11:55 PM 82.0 °F 84.5 °F 66.9 °F 60% 29.99 in 10.0 mi ESE 3.5 mph - N/A   Clear